Theta_e
305 305 305 306 306 306 306 306 306 306 307 307 309 309 310 311 316 322 324 325 323 322 322 320 320 319 318 318 317 317 315 318 327 332 331 329 324 325 324 320 323 328 324 331 343 341 339 342 344 345 345 345 342 341 338 340 341 338 342 332 323 327 329 333 338 336 338 344 345 345 345 345 347 346 345 347 348 350 350 350 348 348 347 347 350 350 350 350
305 305 305 305 305 306 306 306 306 306 306 307 308 309 310 311 317 323 325 325 324 323 322 321 320 318 317 316 316 316 316 321 328 330 329 329 326 322 321 321 323 325 326 336 343 334 334 336 340 342 342 340 338 337 336 336 340 339 339 330 326 331 333 336 336 337 340 342 345 345 344 345 346 345 346 349 351 351 351 352 352 351 350 349 350 350 350 350
304 304 304 304 305 305 305 306 306 306 306 306 307 309 310 311 319 324 325 325 326 324 321 321 319 317 317 315 316 317 320 327 328 325 327 327 326 323 320 322 323 324 328 337 338 330 333 334 336 340 338 338 335 334 335 335 337 335 334 331 330 334 333 336 336 338 339 340 343 344 343 345 344 343 345 349 351 351 353 353 353 352 351 350 350 351 350 349
303 303 303 304 304 304 305 305 305 306 305 306 306 308 309 312 321 326 325 325 326 323 321 320 318 316 316 316 318 319 325 331 325 328 332 326 324 323 319 323 323 322 328 335 332 328 331 330 334 338 336 336 333 333 334 333 335 333 332 333 334 334 335 337 337 338 340 340 342 342 344 343 341 341 342 345 349 351 352 352 353 353 352 350 349 350 351 350
302 302 303 303 303 304 305 305 306 306 305 306 306 308 309 314 324 326 324 325 325 323 320 318 316 316 316 317 318 324 329 326 325 337 333 326 323 320 319 323 322 321 330 335 329 328 328 330 333 336 336 335 331 332 333 333 333 333 334 335 336 336 336 336 337 340 339 340 341 342 343 342 342 344 343 345 347 351 351 351 351 352 351 350 349 350 351 350
302 303 303 303 303 304 304 305 305 306 306 306 306 307 308 316 325 325 323 325 324 321 318 316 316 315 317 318 318 327 332 321 330 337 327 325 323 320 320 322 322 322 331 334 328 328 327 329 332 335 335 332 331 332 332 332 332 334 334 335 336 336 336 338 338 337 339 340 342 341 342 343 346 347 347 349 350 350 351 350 351 351 351 350 351 349 349 348
302 303 303 303 303 304 304 305 305 306 306 306 306 307 308 318 326 324 323 323 321 318 317 315 315 315 316 320 323 329 331 321 333 331 324 330 323 319 319 322 325 328 334 332 329 327 326 330 333 336 334 331 333 331 332 331 331 334 335 336 337 335 338 338 338 338 338 340 340 340 341 343 346 348 348 350 351 351 350 350 349 351 354 352 350 348 348 350
303 303 303 304 303 304 304 305 306 305 306 306 306 306 308 320 326 322 322 322 319 317 316 315 315 315 316 325 331 329 324 326 337 329 322 326 323 319 319 323 328 330 335 331 327 328 327 329 332 335 333 332 331 330 331 331 332 335 335 336 336 336 338 338 338 337 337 338 339 340 342 345 347 348 349 351 351 351 350 350 350 351 350 350 349 349 349 350
303 303 303 304 303 304 304 305 305 305 306 306 307 306 309 322 325 321 321 319 316 316 316 315 315 314 317 326 332 325 326 331 336 332 327 326 325 321 322 327 328 329 332 329 328 327 328 329 333 334 332 331 332 331 331 331 333 334 336 337 337 337 337 338 338 337 338 338 339 342 343 345 345 347 350 350 351 351 351 349 350 350 349 349 349 348 350 350
303 304 303 304 304 304 304 305 305 306 306 306 307 306 310 323 325 319 319 316 316 317 314 314 314 314 319 328 327 323 332 336 333 334 334 334 330 324 326 328 326 328 329 326 328 327 329 332 333 334 331 331 332 331 331 332 334 335 336 337 337 338 337 338 337 337 340 339 341 341 343 343 343 347 348 348 349 350 351 350 349 350 349 349 349 349 352 352
304 304 304 304 304 304 304 305 304 306 306 306 307 306 311 325 323 317 317 316 316 316 313 313 312 315 324 330 326 325 331 335 333 332 335 337 333 327 327 327 325 327 327 326 327 327 331 333 333 332 330 331 331 331 331 333 336 335 336 337 337 338 337 338 339 339 340 341 340 341 343 344 342 346 349 349 348 349 350 350 350 349 350 350 349 349 353 353
304 304 304 304 304 304 304 305 304 305 306 306 307 305 313 324 322 316 317 316 317 315 312 313 311 317 330 330 325 326 328 332 333 333 336 337 334 329 326 326 325 326 327 326 327 329 332 333 334 332 331 331 330 331 332 333 336 336 338 339 338 338 339 339 339 340 340 342 341 340 340 342 345 347 348 348 347 349 348 350 350 349 350 350 350 350 351 353
304 304 304 304 304 304 304 305 304 305 306 307 307 306 314 325 321 316 317 317 317 315 314 315 317 324 334 329 324 326 326 333 334 332 336 336 333 329 327 326 325 325 327 325 327 330 332 334 333 330 332 331 331 332 332 335 336 336 337 338 338 334 335 340 339 340 342 340 341 340 330 334 347 347 347 349 346 348 347 348 349 349 349 349 351 351 353 353
304 304 304 304 304 304 305 305 304 305 305 306 308 306 315 324 320 316 317 317 317 316 318 320 323 331 335 332 329 325 326 334 333 331 333 335 332 329 328 327 325 326 326 327 329 331 333 333 330 331 332 330 334 334 334 336 335 337 336 336 337 326 326 341 341 339 342 340 341 340 325 331 347 346 347 348 347 348 348 349 349 348 350 349 351 351 352 353
304 304 304 304 304 305 305 305 305 306 305 307 307 306 317 325 320 318 317 318 319 317 319 323 326 335 338 335 333 326 328 333 332 331 331 332 331 327 327 325 326 326 325 328 331 333 333 331 331 329 330 330 333 334 334 337 334 339 328 324 332 325 326 341 339 338 341 337 340 340 328 333 346 345 346 347 346 347 347 347 349 349 350 350 351 352 351 354
304 304 304 304 304 304 305 305 305 305 305 307 307 308 320 324 321 320 319 319 319 317 321 330 335 337 336 334 331 327 330 332 332 331 330 330 328 326 325 325 326 326 328 332 331 332 332 331 329 330 330 330 332 333 334 329 329 337 328 317 323 324 325 335 337 338 341 339 339 340 334 337 344 345 346 346 345 347 347 346 349 350 351 351 352 352 353 354
304 304 304 304 304 304 304 305 305 305 305 306 307 313 322 325 323 322 321 319 321 322 326 335 338 335 333 331 329 327 330 331 331 330 330 328 326 324 325 324 326 326 329 333 330 331 331 330 329 328 331 330 332 333 326 317 317 327 329 321 324 326 326 328 335 340 339 340 340 339 339 339 342 344 344 345 345 344 346 345 347 349 351 352 352 352 353 355
304 304 304 304 304 304 304 305 306 305 305 306 309 317 324 324 323 325 327 326 327 330 330 332 334 332 332 330 328 327 329 331 331 330 329 329 327 326 325 325 326 327 329 330 330 331 329 329 329 330 329 329 331 331 319 315 319 320 321 320 321 326 328 327 333 339 340 340 340 339 340 341 342 344 344 344 344 344 344 344 345 347 349 351 352 352 353 354
304 304 304 304 304 305 304 305 305 306 306 307 311 322 328 328 326 328 332 333 335 337 332 333 333 330 328 328 327 328 330 331 329 328 328 329 330 327 325 326 326 327 327 328 330 330 329 330 328 324 325 327 332 332 325 326 329 326 325 323 321 321 325 333 337 339 339 340 341 340 340 343 344 344 344 343 344 344 344 344 345 346 347 349 351 352 353 354
303 303 303 304 304 305 304 305 305 305 306 307 316 326 334 336 336 334 335 335 335 335 329 331 331 328 329 327 326 330 332 330 328 328 327 328 328 327 325 325 326 326 327 329 329 330 330 328 325 323 326 328 331 332 332 333 331 332 329 325 325 322 323 334 339 338 338 337 338 342 343 344 345 344 344 343 343 344 343 345 346 346 347 348 350 350 352 353
303 304 304 304 304 305 305 305 306 306 306 308 318 328 333 332 333 331 331 333 334 331 327 329 330 329 330 328 328 330 330 329 328 327 327 327 327 327 325 326 326 326 327 329 329 331 331 324 325 327 329 329 330 330 331 331 332 330 327 323 322 322 325 335 339 337 339 335 335 342 343 344 345 343 344 342 342 345 345 346 346 346 347 348 350 349 350 352
303 304 304 304 305 305 305 305 306 306 306 313 321 329 329 330 331 329 330 330 330 330 329 328 329 329 329 329 330 328 328 328 328 327 328 326 326 325 325 325 326 326 328 329 328 329 327 325 327 329 329 329 329 330 330 330 330 328 328 323 319 323 327 332 336 337 337 335 335 342 339 341 346 344 344 344 342 344 344 346 346 347 347 348 348 349 350 351
303 304 303 304 305 304 306 306 306 308 311 320 327 328 327 328 329 330 331 331 331 330 327 328 328 327 328 329 329 328 326 328 327 327 328 327 325 326 325 325 326 326 326 328 328 323 320 325 331 329 328 330 329 328 329 329 328 328 326 318 317 324 325 321 330 337 338 334 336 343 339 340 348 345 346 346 341 343 343 344 346 346 347 347 347 348 349 350
303 303 303 304 304 305 306 305 309 315 319 325 327 323 323 325 328 329 330 332 333 330 327 328 328 327 328 329 330 328 326 327 327 328 328 326 326 325 326 326 326 326 327 329 329 326 323 326 331 330 329 329 328 329 330 325 323 325 327 321 318 324 325 323 330 335 335 334 337 339 331 333 344 346 348 346 343 342 342 343 345 346 346 347 345 348 349 349
303 303 303 304 305 306 305 308 318 322 320 321 321 321 324 326 328 329 331 334 332 330 330 327 327 327 328 330 330 328 327 326 327 328 328 328 326 325 327 326 326 327 327 327 329 327 328 329 329 329 330 330 329 329 328 326 319 320 326 328 326 327 328 328 332 331 324 323 332 332 321 323 341 350 350 345 345 346 345 345 347 348 349 346 346 347 348 348
303 303 303 304 304 304 306 314 321 317 315 319 322 326 328 328 329 328 334 332 324 326 329 328 327 328 328 330 328 327 325 326 328 328 329 328 328 327 326 326 327 326 327 329 329 326 327 328 329 329 329 329 329 326 328 328 319 315 324 329 330 331 329 326 329 325 316 317 330 334 323 319 332 345 349 343 345 349 346 347 347 349 350 347 347 347 347 347
303 303 303 304 305 306 312 317 315 312 315 321 324 326 326 328 330 330 333 324 318 325 330 326 327 328 329 330 328 325 322 324 328 328 327 328 328 328 326 327 327 326 328 328 321 322 328 329 327 329 329 328 326 324 328 329 320 317 328 331 330 329 328 327 328 323 319 321 328 333 328 319 318 331 347 346 344 348 348 347 346 347 351 350 348 349 348 347
303 303 303 305 305 307 311 314 314 315 316 320 322 324 323 326 330 333 331 320 321 327 330 326 325 327 327 328 327 326 325 326 326 326 328 327 327 328 325 326 327 326 330 325 315 320 329 328 327 329 328 325 325 326 330 329 324 324 332 331 328 330 328 329 327 322 323 321 317 323 328 321 316 326 344 347 341 346 348 347 347 346 349 350 348 349 348 348
303 303 304 305 305 310 315 314 317 317 314 319 320 321 321 324 332 334 328 323 326 326 328 325 326 327 327 328 326 326 326 327 326 326 327 327 327 328 325 327 327 326 328 326 320 325 330 329 329 329 326 326 327 330 330 329 328 330 333 330 330 330 329 330 328 321 321 319 314 318 324 321 317 321 330 335 335 342 349 347 347 345 345 348 347 347 347 348
303 303 304 305 308 314 318 317 318 315 315 319 319 319 321 326 331 327 321 324 325 323 325 323 325 327 327 327 325 326 327 326 326 328 326 326 326 327 326 327 327 326 328 327 325 328 330 329 330 329 328 328 328 330 330 329 330 331 332 332 330 330 331 332 329 322 318 316 316 317 320 321 318 319 325 330 334 341 346 344 346 344 345 347 347 345 346 349
303 303 304 306 309 313 315 316 317 318 321 322 320 319 323 331 331 320 320 326 321 323 325 324 326 326 328 326 325 326 328 326 326 326 326 325 326 327 325 325 325 323 323 324 325 329 330 329 330 329 328 331 330 330 331 330 330 330 332 328 323 322 325 322 320 320 316 314 316 318 320 319 314 318 325 333 338 338 339 339 343 344 344 348 347 345 345 348
303 303 304 306 308 310 313 314 315 318 320 321 321 319 324 330 325 317 323 323 317 321 325 325 326 326 327 327 326 326 326 326 327 325 325 325 326 326 325 324 324 318 313 316 321 325 327 329 330 330 330 331 330 328 327 328 331 330 327 322 316 314 316 315 314 316 314 314 317 320 320 316 314 322 331 334 336 336 337 337 338 343 346 349 349 347 346 347
304 304 305 306 309 310 310 309 309 312 314 317 319 319 324 324 319 318 323 320 317 323 326 326 326 327 327 326 326 327 326 326 327 327 326 326 325 326 324 326 328 322 315 316 316 314 318 327 329 329 329 330 330 323 319 321 326 328 321 316 313 313 314 314 313 314 314 313 316 321 320 315 314 323 333 334 333 334 337 336 336 340 347 350 349 348 346 346
304 304 305 309 312 311 309 312 314 313 314 316 317 319 322 320 321 322 322 323 324 326 327 325 325 326 326 326 325 327 325 326 327 327 325 325 323 323 323 327 329 328 325 319 315 313 311 316 324 327 326 328 331 327 324 325 327 326 327 323 315 313 314 314 312 312 313 313 314 319 319 313 312 323 334 335 334 334 336 336 337 337 342 348 350 350 347 347
304 306 311 316 318 316 314 315 318 319 318 318 317 319 319 317 320 322 323 326 326 328 328 326 326 324 324 326 327 327 325 323 326 327 324 323 322 322 324 326 328 331 327 317 315 317 310 313 325 328 327 328 329 328 331 328 323 326 330 323 315 317 317 313 312 313 312 312 314 315 317 319 322 333 339 336 334 336 334 337 338 337 337 343 350 352 350 348
308 312 316 320 322 323 320 317 319 321 320 319 318 317 318 321 324 324 327 328 326 329 328 324 324 320 317 322 326 328 326 324 326 325 324 325 325 325 327 328 328 329 328 321 319 318 310 314 329 330 327 330 329 328 332 326 321 324 323 317 320 328 324 313 311 314 312 312 314 313 314 320 324 330 336 337 335 336 336 336 337 339 341 344 349 354 352 350
314 318 319 320 321 323 323 320 320 321 320 320 319 318 323 328 328 326 330 330 327 329 327 320 320 318 313 315 321 326 325 324 325 322 321 323 324 326 328 328 328 329 330 327 324 324 317 315 327 330 327 330 329 328 331 329 327 322 317 319 327 329 327 318 312 313 313 312 313 312 312 315 315 320 330 337 334 333 336 336 335 340 345 347 349 351 353 352
316 319 321 323 321 322 324 322 322 320 319 320 321 323 327 328 329 327 328 330 328 330 328 320 319 321 317 313 317 326 325 320 322 323 320 321 321 325 331 328 328 329 330 329 325 328 323 313 321 332 328 328 331 327 325 327 331 327 322 328 327 317 316 317 313 313 314 313 314 312 312 313 312 317 329 334 334 335 335 336 335 335 341 346 348 350 353 352
319 322 325 326 322 323 325 323 323 320 317 319 321 324 326 327 329 328 327 330 329 329 329 325 323 323 321 318 320 326 325 319 322 322 319 321 322 325 330 329 329 329 328 330 328 329 329 316 315 328 331 329 329 324 318 320 327 329 329 330 327 319 317 316 314 314 313 313 314 313 312 313 317 325 332 334 335 335 334 337 336 334 337 343 346 349 352 352
322 322 323 326 326 326 327 325 323 320 317 319 322 324 325 327 329 329 327 329 328 329 329 329 329 325 323 324 323 325 326 324 324 323 320 323 323 324 329 330 329 330 327 329 330 329 330 321 313 322 330 324 321 322 321 320 324 323 321 320 322 321 320 319 318 316 314 312 312 313 312 313 323 333 334 335 336 333 334 337 336 335 335 337 343 348 352 356
319 319 321 325 326 326 327 325 323 320 318 320 323 323 326 327 327 328 328 328 327 328 328 328 330 328 325 325 324 326 327 324 325 324 324 325 323 323 328 329 328 330 328 328 329 327 326 323 315 316 321 317 320 328 329 327 327 325 320 319 320 320 318 316 316 315 314 312 311 313 312 313 326 336 334 334 334 333 335 336 335 337 336 335 341 346 353 357
320 320 320 324 325 325 326 324 322 321 319 320 322 323 326 329 327 327 327 328 328 328 328 328 330 330 330 328 326 327 327 324 324 324 323 325 327 326 327 329 329 329 327 327 328 329 328 326 317 313 317 322 327 331 328 328 330 330 328 326 326 325 317 312 311 313 313 313 314 313 311 316 331 336 334 334 335 333 335 335 335 336 337 337 341 345 352 358
322 321 322 324 323 326 326 325 323 321 320 321 322 322 326 329 329 328 327 327 327 326 328 329 328 329 332 330 328 328 327 325 324 325 325 328 327 328 329 330 327 328 330 327 326 329 329 325 316 313 321 327 329 329 329 329 329 327 327 329 329 327 323 320 318 318 315 313 314 314 310 318 335 338 334 336 336 335 335 336 336 335 335 337 341 348 355 361
319 320 320 322 323 324 326 327 325 323 322 321 322 323 326 329 329 328 328 326 326 327 326 328 328 329 329 330 330 330 326 321 322 326 327 327 327 329 329 328 328 329 327 328 331 327 323 322 317 312 314 318 320 324 323 325 326 324 327 329 329 328 328 327 324 322 318 314 315 315 311 318 338 344 338 337 337 334 334 335 335 336 335 336 342 351 359 364
320 322 319 320 322 323 323 326 326 326 324 322 323 325 326 328 328 327 327 326 325 326 326 327 328 328 329 330 329 331 330 324 323 326 326 326 330 329 327 328 329 326 327 340 348 332 322 326 321 312 310 312 313 315 316 320 323 324 327 328 330 329 327 324 319 317 315 315 317 315 312 321 339 345 338 336 337 335 336 334 334 337 337 338 343 351 360 365
321 324 322 319 319 321 323 324 325 327 328 327 325 326 326 327 327 325 326 326 325 325 326 326 328 328 328 330 329 329 332 329 325 327 327 328 330 328 329 329 325 331 349 353 346 331 327 329 326 319 315 315 314 319 326 325 322 318 321 325 327 329 329 326 317 313 315 317 314 316 318 321 332 340 338 337 337 337 336 336 335 336 337 338 345 352 360 366
322 325 326 323 320 321 322 322 324 327 330 329 328 328 327 327 326 326 325 325 325 325 326 325 327 327 327 330 331 328 329 330 330 329 327 327 331 331 330 328 324 345 365 350 329 331 330 324 326 328 323 323 325 329 331 329 322 319 320 322 324 328 328 324 316 317 322 316 311 322 328 321 325 336 336 334 336 337 337 336 336 337 337 337 343 351 359 364
323 323 324 325 324 325 324 323 325 326 327 329 328 329 329 326 326 326 325 325 326 326 327 327 327 327 327 330 330 328 329 329 327 329 331 329 330 332 332 329 328 344 351 334 324 335 329 319 325 327 324 328 331 330 330 329 326 325 324 323 324 326 326 322 320 325 328 317 315 329 336 326 329 335 334 333 335 335 336 336 336 335 338 337 339 348 356 360
321 321 321 323 323 326 327 327 328 328 328 329 329 329 328 328 326 326 327 328 327 326 327 328 326 326 327 330 331 333 336 330 325 331 339 337 330 330 332 329 330 335 334 328 329 334 326 322 330 329 323 326 329 328 329 329 326 325 326 327 329 328 327 326 326 329 330 324 326 336 335 333 335 336 334 334 338 336 337 337 334 334 335 335 337 345 352 354
317 319 319 320 322 324 327 327 328 328 328 328 329 329 328 327 327 327 327 328 328 329 330 328 328 328 330 332 332 334 340 337 334 338 343 339 332 332 332 330 332 334 331 329 331 330 325 324 332 331 319 319 327 329 327 328 327 323 323 327 329 328 327 327 327 328 328 327 330 335 330 331 337 338 334 335 339 340 338 336 335 336 335 334 337 342 347 352
314 317 317 318 322 326 325 325 325 325 325 326 328 328 327 328 329 328 329 327 327 332 331 329 331 332 332 332 333 333 334 336 336 337 337 337 334 335 336 332 331 334 332 332 331 333 331 328 331 329 317 315 325 327 324 328 326 320 319 324 325 324 324 326 328 330 328 326 329 328 324 328 336 336 334 336 338 339 336 334 337 337 336 337 340 343 346 349
313 316 317 317 322 325 324 323 324 324 324 326 328 328 327 327 328 327 327 327 326 328 330 329 331 332 331 333 335 333 330 330 331 331 331 332 333 335 335 334 331 332 333 334 331 334 337 331 326 325 317 315 323 325 324 324 319 314 318 325 327 327 327 327 329 332 333 331 329 325 326 333 338 334 334 336 335 334 335 334 337 339 340 341 344 346 346 345
Wind_Speed
24 24 24 25 25 25 26 26 27 26 26 27 27 28 29 30 29 26 24 23 21 19 17 17 18 19 18 17 15 13 11 8 8 11 14 14 11 9 7 9 14 14 12 10 10 10 10 11 11 10 8 6 5 3 5 6 7 6 4 1 2 4 7 4 6 8 8 11 10 9 9 10 10 11 10 10 10 9 9 8 9 9 11 16 20 24 23 20
24 25 25 25 25 26 26 27 27 27 27 27 27 28 29 30 29 26 24 23 22 19 17 17 17 17 16 13 11 9 9 9 12 17 20 18 13 12 10 10 14 15 14 13 13 12 11 10 9 8 6 5 5 3 4 5 6 6 3 2 3 7 8 6 8 9 10 11 10 9 9 10 9 9 8 7 10 10 10 11 11 13 15 19 23 24 22 20
24 25 25 25 25 25 26 27 27 28 28 27 28 28 29 31 29 26 25 23 21 18 15 15 15 14 11 9 8 5 7 10 15 19 21 21 20 17 12 13 17 17 16 15 12 13 12 9 8 8 7 7 5 4 5 5 5 4 3 2 6 7 8 7 8 10 11 11 10 10 9 9 8 6 6 7 10 10 10 11 12 14 16 18 20 22 23 21
25 25 26 26 26 26 26 27 27 28 28 28 28 29 29 30 29 26 25 23 19 15 13 12 11 10 7 6 4 1 5 11 12 12 13 17 20 19 15 14 19 19 17 14 11 12 14 10 7 8 8 8 5 5 6 7 4 1 1 4 7 6 7 8 9 11 12 11 10 10 9 9 7 5 6 8 8 7 9 11 12 15 17 19 19 20 22 21
25 26 26 26 26 26 26 26 27 28 29 29 29 29 29 30 28 26 24 21 16 12 11 9 8 6 4 3 2 1 6 7 1 3 6 14 17 18 18 15 20 21 16 15 12 12 14 11 9 8 9 7 6 6 6 8 5 1 6 6 6 6 8 7 10 12 11 10 10 10 9 8 6 5 4 4 6 6 8 12 14 16 17 18 19 19 19 19
25 26 27 27 27 27 27 26 27 28 29 29 29 29 29 29 27 25 23 18 12 10 9 7 5 3 2 0 3 3 8 4 6 7 4 11 16 18 18 16 19 20 16 15 13 12 13 11 11 9 9 7 7 8 6 5 6 2 6 4 4 7 8 9 10 10 10 10 10 9 8 8 7 8 8 7 10 10 11 14 16 17 17 18 18 17 17 16
25 26 27 28 28 28 27 27 27 28 29 30 30 30 29 28 25 23 19 14 10 8 8 7 4 2 1 2 1 5 11 10 2 6 2 4 16 21 18 17 19 18 16 15 14 13 11 12 12 9 9 6 6 8 8 4 7 3 6 3 5 8 9 10 10 9 10 10 10 9 8 9 9 9 9 11 13 13 14 16 17 18 18 18 16 15 15 15
25 27 28 28 28 28 28 28 27 28 29 30 31 30 29 26 23 21 16 11 8 8 8 7 4 3 2 1 4 7 11 9 5 9 3 1 15 23 19 17 19 17 17 16 15 13 11 13 12 9 9 6 6 4 7 7 5 7 5 5 7 8 10 10 9 10 11 9 9 9 9 11 11 10 10 12 13 14 15 15 17 17 17 16 15 15 14 13
26 27 28 29 29 29 29 29 27 28 29 30 31 31 29 24 21 18 12 8 8 8 9 8 5 4 4 3 8 8 5 5 10 8 2 2 13 24 20 17 19 18 17 17 16 14 11 11 12 10 8 4 7 5 7 10 3 9 5 7 8 9 10 10 10 11 11 8 9 10 11 13 12 11 11 12 13 14 15 15 16 16 16 15 14 14 13 12
26 27 28 29 30 30 30 29 28 28 28 30 30 31 28 22 19 15 10 7 8 9 9 7 5 5 6 6 10 8 4 7 7 6 4 7 16 22 21 18 20 19 17 16 15 13 11 11 10 8 7 4 6 8 9 8 7 8 7 9 10 10 9 9 11 11 11 9 9 11 12 12 12 9 8 11 12 14 15 15 16 15 14 14 13 13 12 11
27 28 28 29 30 30 31 30 30 28 28 30 30 31 28 20 16 13 8 7 9 10 8 6 4 7 7 9 10 5 6 3 3 6 6 11 18 21 21 19 19 20 17 14 14 13 13 10 6 5 4 4 8 10 7 6 11 8 9 11 11 11 9 8 11 10 9 9 9 11 11 10 9 9 9 11 12 13 15 15 15 14 13 13 13 13 10 11
28 29 29 30 30 31 31 31 31 29 28 29 29 30 26 18 14 11 8 7 8 8 6 3 4 6 7 9 12 5 5 1 4 6 8 13 18 20 21 19 18 20 17 13 13 13 12 7 7 10 4 6 8 7 6 8 10 8 9 10 11 11 9 8 10 9 7 9 10 9 10 10 9 10 12 12 12 13 14 14 14 13 12 12 13 11 10 10
29 30 30 30 30 31 31 31 31 31 29 28 29 30 25 16 12 10 7 6 6 5 2 1 3 4 8 7 11 7 1 0 4 5 9 14 15 16 17 17 19 20 16 14 12 12 10 6 10 12 6 8 7 5 7 10 10 9 10 8 9 10 9 9 8 9 9 10 9 5 3 9 10 10 12 11 12 13 13 13 13 12 12 11 11 10 10 11
30 31 31 31 31 31 31 31 32 32 30 28 29 29 23 15 11 9 7 6 5 3 2 2 3 5 9 6 4 6 3 2 4 7 11 14 15 15 15 15 17 17 14 15 12 10 10 9 11 9 7 9 3 7 9 11 9 10 10 8 7 7 9 9 8 10 10 8 8 4 2 7 10 11 12 11 12 12 11 12 12 12 12 11 11 11 11 11
30 31 31 32 32 31 31 31 32 32 31 28 29 29 21 14 10 8 7 6 3 3 3 5 7 6 9 8 4 6 5 5 7 10 12 15 15 15 16 17 16 15 13 11 9 9 10 10 11 8 7 6 4 9 9 8 8 9 8 8 8 6 9 10 9 10 8 8 9 4 4 6 11 12 12 11 11 12 11 12 12 12 12 11 11 11 11 11
30 31 32 32 32 32 31 31 32 33 32 28 29 28 18 13 9 7 7 6 3 3 4 5 8 9 8 3 6 8 7 9 11 12 12 15 17 17 19 19 16 15 12 7 8 9 10 11 11 9 9 6 7 11 8 7 8 7 6 7 8 6 7 10 9 8 5 6 8 6 6 6 10 12 13 12 11 11 11 11 12 12 12 11 10 10 10 11
30 31 32 32 32 32 31 31 32 33 32 30 29 24 15 12 9 6 6 5 4 4 6 8 7 8 8 3 4 9 11 9 11 13 13 14 16 19 20 16 14 14 12 9 9 10 10 10 8 7 8 8 10 10 8 9 7 6 8 6 8 9 7 9 10 9 6 5 6 6 7 8 11 12 13 14 12 12 11 12 13 12 11 11 9 10 10 10
31 32 32 32 32 32 32 31 31 33 32 30 26 19 14 12 7 5 6 4 4 6 8 10 8 6 7 9 9 11 13 10 11 13 13 13 13 18 21 15 13 14 13 11 10 11 10 9 7 6 8 9 11 10 8 9 9 9 10 7 9 10 7 7 8 10 9 8 6 4 6 10 13 12 12 13 13 11 11 11 12 12 11 11 10 9 9 10
32 32 32 33 32 33 32 31 31 32 33 29 21 17 14 8 4 6 9 8 7 6 5 5 9 5 2 8 11 10 13 12 11 12 15 15 13 16 20 15 14 15 13 10 11 13 10 8 8 9 9 10 12 12 10 11 12 12 11 9 10 9 7 7 7 11 11 8 7 5 6 11 12 12 12 12 12 10 10 11 10 12 12 11 10 10 10 10
32 32 33 32 33 33 32 32 31 31 33 27 16 13 10 5 3 4 8 11 10 11 11 5 11 10 3 7 10 8 11 12 11 12 16 18 15 17 18 15 14 14 12 12 13 13 11 9 10 10 11 13 15 13 14 13 9 10 11 10 11 10 8 8 8 11 10 8 6 6 7 12 12 12 13 12 12 11 11 11 10 11 12 11 11 11 11 10
33 33 33 32 34 33 32 32 30 30 32 22 9 8 8 7 6 4 4 10 13 15 16 11 11 12 6 3 10 11 9 11 13 13 16 19 18 16 14 14 14 12 13 15 14 12 12 10 12 13 13 15 14 13 15 12 6 5 10 9 10 10 10 13 11 10 9 8 6 7 7 10 12 11 12 13 12 11 12 12 11 12 11 11 12 12 11 10
33 33 33 33 33 33 33 32 29 31 28 14 7 10 8 8 8 9 10 11 11 12 14 13 13 12 7 5 7 11 12 12 14 14 16 19 17 14 13 14 14 12 14 16 12 12 12 11 14 16 14 14 15 15 15 10 7 7 9 9 9 9 11 13 12 10 8 6 5 8 7 8 13 12 12 13 12 10 11 12 11 12 11 11 11 12 12 11
33 33 34 33 34 35 33 31 30 29 19 8 10 13 10 8 7 11 10 9 11 12 14 13 14 12 11 11 8 12 14 13 15 15 18 19 16 15 14 15 15 14 15 16 13 12 11 12 15 16 16 14 12 13 12 8 7 9 8 8 8 9 11 9 9 11 10 7 6 8 7 7 11 12 11 12 11 11 12 13 12 12 12 12 12 12 12 12
33 34 34 34 35 34 32 33 26 17 8 9 15 17 13 9 7 11 10 9 11 10 12 13 14 13 12 12 11 14 14 12 14 15 19 19 15 14 14 15 16 14 14 17 15 12 12 14 16 17 16 12 9 10 10 9 8 9 11 8 8 9 8 6 8 12 11 10 9 7 6 6 9 11 10 10 11 11 12 13 13 12 12 12 12 13 13 13
34 34 35 35 34 34 35 29 14 8 9 12 17 14 10 6 4 8 8 7 9 8 12 13 11 12 14 12 12 14 13 12 14 15 19 19 16 13 12 11 12 13 16 18 15 11 12 15 18 19 15 12 12 12 12 11 8 9 12 12 13 12 10 10 12 11 7 8 10 9 6 6 9 11 10 9 10 10 10 12 12 12 13 13 13 13 13 13
34 34 35 35 33 36 32 14 7 17 19 14 9 5 4 4 5 6 5 6 7 6 11 12 9 11 15 13 12 13 13 13 14 16 20 21 18 12 10 9 9 13 15 15 11 8 10 14 17 16 12 13 14 13 13 14 9 7 12 14 16 10 5 10 11 10 6 7 10 12 9 5 7 9 11 12 13 13 12 13 14 12 12 12 12 13 12 13
34 34 36 34 32 34 22 9 15 21 15 6 5 6 6 5 5 3 3 7 6 7 11 10 8 12 15 13 14 13 10 10 13 17 20 21 19 12 11 11 10 11 11 10 9 8 9 13 14 13 13 13 13 11 12 14 10 4 6 16 13 9 8 10 5 7 8 9 9 12 9 8 6 8 11 12 14 15 14 15 15 15 15 15 13 14 14 13
34 34 35 33 31 27 15 14 18 16 13 10 9 9 8 7 5 2 4 7 4 7 8 7 6 10 13 13 16 15 9 12 13 15 20 23 20 12 12 13 12 12 11 11 10 9 10 12 14 15 14 11 11 13 13 14 12 2 4 7 11 9 11 10 4 6 9 7 5 8 8 8 6 6 10 12 14 14 15 16 16 16 16 17 16 16 16 15
34 35 34 35 32 20 9 12 14 15 18 15 11 11 11 11 8 4 5 6 3 4 4 6 5 9 13 13 17 18 11 12 12 12 19 22 19 12 11 12 14 13 12 13 12 10 12 12 14 16 13 11 13 16 16 17 11 3 1 5 6 7 11 9 8 9 7 5 5 8 9 7 6 8 9 11 12 12 14 13 14 17 18 18 17 17 17 15
35 34 34 36 29 13 9 14 19 19 19 16 14 13 13 12 8 6 7 5 3 5 5 6 8 13 15 15 16 18 13 12 11 12 16 17 17 14 11 9 13 12 11 15 14 8 11 13 12 14 13 12 14 11 9 13 7 3 5 6 5 7 8 6 7 7 6 6 8 13 14 10 7 8 9 10 10 10 11 12 15 18 19 19 18 17 17 15
36 35 33 34 27 15 11 12 12 11 10 11 12 11 11 8 6 8 6 2 3 7 8 8 12 15 18 17 14 15 14 13 14 16 15 14 15 14 10 8 10 11 10 13 12 7 9 12 10 12 10 8 11 9 5 8 7 4 8 7 6 7 4 4 6 6 7 8 9 14 16 14 9 7 8 7 12 13 12 12 16 18 19 19 17 17 17 16
36 35 32 33 29 19 16 13 8 9 8 10 10 8 8 7 8 9 6 2 2 7 8 11 14 15 18 18 15 16 15 12 14 16 15 14 13 13 12 10 9 11 11 11 11 9 9 12 12 12 10 8 10 11 8 9 9 9 9 8 7 6 5 6 7 6 7 8 8 10 11 10 8 7 9 9 9 14 12 10 11 15 19 19 18 17 16 16
37 35 33 29 23 20 21 20 18 16 13 13 10 6 7 8 8 9 10 6 3 5 6 11 15 16 18 17 15 17 15 12 14 16 17 16 14 14 16 16 13 11 10 11 11 9 9 13 17 14 11 12 12 9 8 9 10 10 10 8 8 7 6 7 7 6 8 9 9 8 6 7 7 6 10 10 7 7 8 8 9 9 15 18 19 17 16 17
37 34 31 24 19 22 22 20 17 14 11 11 8 6 9 10 8 9 12 10 5 3 4 10 14 16 18 15 14 16 13 12 17 16 17 16 13 13 15 17 18 14 10 12 11 9 10 11 14 14 11 13 15 10 9 9 10 10 10 8 7 7 6 6 6 6 7 7 7 7 4 6 6 1 2 1 1 6 3 6 7 6 9 13 17 18 17 17
36 30 25 19 19 20 17 15 14 9 8 9 7 8 11 9 8 9 10 10 7 6 7 9 12 14 16 14 15 18 13 10 17 16 15 15 13 13 14 15 20 18 11 11 9 8 11 10 13 16 14 15 16 13 10 10 9 9 9 9 8 8 7 6 6 6 6 5 3 5 4 6 4 4 3 2 3 3 2 3 7 7 8 11 13 17 17 16
31 25 19 16 17 14 10 11 12 11 10 9 8 9 10 8 9 9 5 5 6 6 10 9 10 12 13 12 14 19 16 12 16 15 12 15 15 15 17 14 18 21 14 9 8 8 10 10 17 19 16 17 18 15 11 10 8 7 8 10 8 7 8 7 7 7 7 7 5 5 6 6 5 6 10 9 6 6 5 5 8 8 10 12 12 14 16 16
25 20 16 16 15 12 12 11 12 13 10 9 10 10 10 10 12 11 4 3 7 5 7 8 10 11 11 12 12 18 17 12 15 15 11 15 15 16 19 16 16 20 18 12 8 8 9 6 18 21 16 16 17 15 13 12 11 7 7 8 8 6 5 6 6 5 6 7 6 6 7 6 5 4 9 11 7 8 8 6 5 7 10 11 11 13 15 16
20 16 15 17 14 12 15 13 13 12 8 9 11 12 12 12 13 12 5 3 7 7 8 7 9 12 12 12 11 16 17 12 14 14 12 13 13 16 19 16 16 21 21 16 8 7 9 5 14 19 16 13 13 13 12 12 14 10 4 4 7 6 5 5 5 5 5 6 6 7 7 6 6 4 8 10 6 5 6 5 4 6 9 10 11 12 14 16
16 11 8 8 11 13 15 14 12 10 8 10 11 10 12 15 14 11 6 5 8 6 8 11 9 12 14 13 12 15 16 14 14 13 11 10 11 17 20 14 16 22 21 17 9 6 10 7 7 16 17 13 11 11 10 10 12 11 7 4 6 6 5 6 5 5 6 6 6 6 5 4 5 5 9 9 5 2 3 5 4 5 6 8 10 11 13 15
11 8 3 10 12 12 15 14 10 8 9 11 11 9 12 14 14 11 8 8 8 6 8 11 9 10 14 15 14 14 15 15 14 12 11 12 13 17 20 15 14 19 20 18 13 6 7 7 6 11 15 13 10 10 11 11 11 10 8 7 8 6 4 4 5 7 7 5 5 5 4 0 3 4 6 8 6 3 1 3 4 4 4 6 8 10 11 13
8 7 2 9 11 14 15 10 9 8 10 11 11 12 12 11 12 14 12 9 8 8 8 10 10 8 9 13 15 13 14 15 15 12 11 15 13 11 15 15 12 14 16 16 13 8 6 7 7 8 10 10 10 13 16 16 14 12 10 10 9 8 6 6 6 8 7 6 5 5 5 2 7 6 5 6 4 3 2 1 3 4 3 3 6 9 11 12
7 6 3 10 12 17 13 8 8 8 10 10 11 13 10 6 9 14 12 10 10 10 9 10 10 9 8 11 14 13 13 14 15 14 12 15 15 11 13 17 16 14 12 12 13 11 8 7 8 8 8 10 14 17 20 20 16 11 11 12 11 10 8 7 7 7 6 7 6 6 6 2 8 6 5 6 3 1 2 1 3 2 1 2 5 7 10 12
6 6 2 11 14 15 10 8 9 10 10 11 13 15 10 6 9 13 12 12 11 9 9 10 9 10 10 10 13 14 13 13 15 16 14 16 18 15 15 17 18 15 11 10 12 12 9 7 8 9 8 9 12 13 16 17 14 11 11 12 12 11 10 9 9 6 4 5 5 6 6 3 6 5 6 6 2 1 2 3 3 2 2 3 5 6 8 11
6 9 4 10 15 12 8 8 10 10 10 13 15 15 12 8 10 13 13 13 12 9 10 11 10 10 10 10 11 13 12 11 14 17 16 14 13 12 14 16 16 15 12 9 9 9 8 7 8 9 9 9 9 8 10 12 12 10 10 12 13 14 14 13 9 4 3 7 8 7 7 3 4 4 6 5 2 1 2 4 4 3 3 4 5 5 7 10
7 7 5 8 12 11 9 9 9 8 11 15 16 14 13 11 10 13 13 12 11 9 9 9 9 9 9 9 11 12 13 12 12 14 16 13 8 9 12 15 13 14 11 5 7 8 9 8 8 9 10 11 11 9 9 10 10 10 13 16 16 17 17 13 9 6 5 8 10 10 7 3 8 7 6 5 2 1 3 5 5 3 3 4 4 5 7 9
6 5 5 7 10 9 9 10 11 9 8 12 13 13 15 13 12 13 12 12 11 9 8 8 8 8 9 11 12 12 13 15 13 12 15 15 9 9 10 12 14 12 4 4 6 6 7 8 11 12 13 12 9 9 10 11 12 12 16 19 18 18 18 14 10 9 7 8 9 9 7 4 8 8 5 4 3 3 5 6 7 5 5 5 5 6 8 9
5 5 4 3 6 8 9 10 11 10 8 8 7 10 14 14 12 11 11 10 10 8 9 10 10 10 10 11 12 12 13 15 15 11 14 16 11 10 8 10 13 7 5 1 6 6 5 10 13 15 17 16 13 13 16 18 18 17 19 21 20 20 19 16 13 12 9 9 10 6 7 12 12 9 8 6 3 4 5 7 8 7 7 6 7 8 10 11
5 5 5 4 3 6 7 6 9 11 11 8 4 6 10 13 13 10 9 9 9 8 8 10 13 14 12 9 8 10 12 15 16 12 11 15 13 10 8 11 12 8 5 8 10 6 7 10 11 13 16 18 19 20 20 17 16 16 18 20 21 21 20 17 16 16 14 11 9 5 6 12 13 10 10 9 7 6 7 7 8 8 8 8 8 10 11 12
6 5 4 5 6 8 6 4 5 8 10 7 5 7 9 11 13 10 6 6 9 9 7 10 14 14 11 8 6 7 7 7 12 11 5 9 13 10 8 10 11 9 10 12 11 9 9 8 11 16 18 19 23 24 21 16 13 16 19 20 20 20 20 19 18 19 18 15 11 9 9 11 10 10 12 8 6 6 7 7 9 9 10 10 10 10 11 12
6 5 6 8 8 8 8 6 5 7 8 6 6 8 9 11 12 8 5 6 8 7 5 9 12 8 6 8 9 6 1 6 4 4 6 8 7 8 6 9 9 10 12 12 9 10 8 7 12 16 14 15 20 21 18 16 16 19 20 21 20 19 20 20 18 18 18 15 12 12 12 11 7 8 12 6 1 3 6 8 9 10 11 10 9 9 10 11
11 9 6 7 7 5 6 6 6 7 7 7 7 8 10 11 9 5 5 5 6 3 1 5 6 4 7 11 8 1 4 6 6 5 8 8 3 3 4 6 9 10 12 11 8 9 8 8 10 11 9 11 16 16 14 16 19 21 21 21 21 20 19 17 15 15 15 11 8 8 10 9 6 7 9 5 3 6 9 9 9 8 9 10 8 8 9 10
13 10 7 7 7 5 5 6 6 7 5 3 2 4 6 6 4 4 5 6 5 2 3 5 6 5 8 8 2 5 6 6 7 6 6 6 5 5 5 5 8 8 8 10 9 8 8 8 8 9 8 11 15 16 14 16 17 16 16 19 20 19 17 15 14 14 10 6 6 7 8 7 5 4 5 6 8 10 9 8 7 7 8 9 9 9 10 10
Wind_Direction
355 354 354 353 351 349 346 344 343 343 342 340 339 337 336 337 335 333 328 322 315 305 296 294 294 297 298 294 295 297 295 294 271 240 231 245 246 232 241 221 201 195 190 190 199 204 212 218 226 233 247 247 228 228 159 182 228 233 244 186 137 109 102 91 89 107 124 120 124 123 111 108 112 112 117 126 118 115 120 109 112 113 109 119 126 133 140 142
352 352 353 352 350 348 345 343 341 342 341 339 338 336 336 335 334 332 327 322 314 304 294 290 294 297 298 296 297 298 296 284 259 250 245 242 239 229 230 217 195 184 180 192 205 207 218 212 207 222 235 233 198 178 165 176 223 245 253 122 74 69 87 91 95 113 122 117 125 122 112 112 114 120 134 134 116 121 124 115 112 105 105 116 127 137 142 146
351 351 351 351 349 348 345 342 341 340 339 338 336 336 336 335 333 330 326 322 313 303 291 288 296 299 301 301 295 300 306 286 259 252 248 236 232 228 222 209 191 182 184 199 210 211 234 238 202 203 227 228 186 180 179 172 210 243 257 121 75 72 91 93 97 108 113 121 127 115 110 110 112 132 142 129 120 127 125 124 130 125 127 131 135 140 144 152
351 350 350 350 349 348 345 343 341 339 338 337 335 335 335 334 332 330 328 323 315 300 289 290 299 304 311 309 283 269 292 277 257 247 233 220 225 221 210 205 192 189 198 214 224 224 245 264 227 200 228 230 169 187 174 158 215 277 35 92 94 104 97 87 99 107 113 119 116 111 113 107 108 131 144 148 133 121 129 136 138 136 139 139 140 144 148 155
350 350 349 349 349 347 346 344 341 339 338 336 335 334 334 334 332 330 328 325 316 298 291 292 300 312 322 308 181 182 271 260 212 87 157 184 204 205 198 196 191 193 205 227 237 232 239 249 235 208 236 236 154 196 176 150 232 358 57 50 74 100 95 94 101 102 111 118 114 112 103 91 95 91 97 145 117 98 122 129 131 136 139 141 144 147 152 156
350 349 349 349 348 347 346 344 342 340 338 335 334 333 334 334 331 330 328 326 315 295 292 291 305 325 321 56 150 222 251 252 74 76 129 176 188 188 188 184 183 192 208 230 234 226 228 233 232 213 230 233 173 194 156 139 240 170 81 48 59 86 98 103 105 114 123 117 106 100 95 93 97 79 58 64 79 89 110 120 128 132 137 142 145 150 157 159
350 349 348 348 347 346 345 344 343 340 338 335 333 333 334 334 331 329 327 325 313 300 298 294 307 293 259 88 145 216 242 264 75 114 103 181 187 179 177 176 180 195 214 227 225 220 221 220 224 220 227 228 201 190 132 171 238 121 96 105 95 95 108 111 117 124 110 102 99 100 107 99 94 92 80 78 87 98 110 122 129 130 138 144 147 153 157 159
350 349 348 347 347 346 345 344 343 341 338 335 333 332 333 333 332 328 324 321 313 307 304 301 302 262 204 169 244 225 235 247 122 121 98 162 184 176 168 176 188 199 215 221 219 218 217 219 219 224 233 207 211 191 134 204 211 107 101 103 105 109 115 118 118 112 103 103 97 93 95 88 89 95 93 94 103 110 116 126 129 133 141 144 150 154 155 164
349 349 349 347 346 345 344 343 342 341 338 335 333 332 332 333 331 326 321 319 314 311 310 302 282 237 207 235 256 245 224 144 117 120 128 151 174 175 171 178 191 200 212 215 217 220 213 221 214 218 248 205 188 176 179 218 128 98 128 124 123 121 122 129 123 115 110 102 96 102 100 97 103 102 97 104 112 119 124 130 131 137 144 146 154 149 153 169
349 349 349 347 346 345 344 342 342 341 338 335 333 331 330 332 330 323 316 318 319 317 317 300 259 205 213 238 247 241 118 106 129 139 160 168 167 175 182 187 189 197 210 210 219 227 213 217 214 219 266 248 182 176 199 209 113 114 151 136 131 128 133 136 123 113 104 100 109 116 113 118 125 116 107 113 122 129 130 133 137 143 146 149 150 143 157 171
349 349 348 347 346 344 343 341 341 340 338 336 333 331 329 329 328 320 312 321 323 325 330 305 226 192 235 250 243 232 97 109 172 155 172 171 170 178 190 193 188 197 208 207 214 222 223 230 214 215 239 190 183 184 180 135 122 142 150 138 140 136 131 125 116 112 112 111 114 115 122 129 119 107 114 125 133 137 135 137 143 145 145 150 145 142 163 168
348 348 348 347 345 344 342 340 339 339 338 335 332 330 327 325 325 315 305 319 326 334 347 311 186 192 264 258 238 243 63 104 166 158 183 174 179 184 189 193 189 201 208 206 209 210 233 248 200 220 219 155 178 179 147 121 126 143 155 150 145 136 131 137 127 124 129 113 115 130 131 115 100 110 123 135 140 139 140 142 146 146 145 148 144 147 164 161
347 347 346 345 344 343 341 339 338 338 337 335 332 330 325 320 320 312 303 314 326 333 346 182 166 228 269 261 231 224 31 278 151 155 178 175 183 184 191 195 192 206 210 208 206 197 226 245 213 230 233 195 181 119 136 147 140 155 173 163 151 150 149 155 143 138 134 113 128 172 145 106 110 129 135 143 146 143 145 143 147 148 147 151 148 157 163 158
347 346 345 344 343 342 341 339 338 336 335 334 332 329 322 314 312 308 296 299 316 306 219 218 264 264 258 264 224 192 201 238 167 170 173 175 180 179 189 194 195 208 212 212 196 182 215 229 233 241 234 227 155 115 160 156 154 173 172 167 178 173 150 155 162 159 141 128 158 169 106 121 127 140 147 153 152 149 148 142 146 145 147 154 153 161 160 159
347 345 344 343 341 341 340 338 337 335 334 333 330 327 319 306 303 302 294 293 299 259 238 258 255 249 258 252 188 165 195 217 195 184 176 178 181 178 183 184 191 200 210 213 177 180 216 214 230 225 208 230 156 170 180 158 176 181 171 182 197 183 150 158 180 186 159 159 186 150 98 128 135 150 155 159 161 156 152 145 148 148 150 155 155 160 157 159
346 345 343 342 340 339 339 337 336 334 332 331 329 324 312 301 300 298 297 287 274 234 225 257 231 226 274 294 140 162 196 205 193 181 179 184 183 176 177 181 187 193 202 200 167 192 212 206 225 215 193 201 193 194 176 175 196 181 195 198 191 197 165 156 177 204 178 163 185 161 153 141 137 157 160 163 169 162 158 153 154 154 154 157 158 161 155 158
346 344 342 341 339 337 338 337 336 334 330 330 328 320 306 301 296 290 298 273 255 234 224 268 271 237 264 310 148 185 193 189 174 171 179 189 188 176 174 181 183 187 191 183 183 197 198 203 224 212 194 197 204 203 183 191 191 180 211 200 189 207 179 155 174 192 186 192 208 179 161 140 140 161 164 168 174 168 163 157 158 159 158 161 166 164 159 163
345 343 341 340 338 336 336 335 336 334 329 329 327 316 306 303 292 284 290 245 217 230 235 258 268 261 244 223 214 197 184 173 164 170 175 187 195 178 174 182 178 182 187 183 192 196 191 195 202 198 195 198 205 206 202 196 179 191 212 194 194 208 188 173 173 173 183 201 212 189 139 133 147 161 166 173 176 171 164 160 160 159 162 169 173 168 166 173
344 343 340 338 337 335 335 334 335 333 328 328 326 316 310 304 274 251 243 219 198 226 244 199 206 264 336 189 199 185 170 164 164 174 173 179 192 179 179 184 178 184 188 181 188 194 195 189 196 207 196 201 208 203 214 206 180 191 210 198 190 194 192 196 172 161 184 207 195 181 145 141 154 164 168 175 174 170 165 165 165 160 165 174 176 171 171 179
343 341 339 336 336 334 333 333 332 332 328 324 325 311 296 289 264 216 212 221 223 248 273 245 210 245 292 173 172 147 147 160 176 181 175 180 187 183 184 186 182 189 194 187 182 188 200 196 201 212 199 204 213 207 217 222 194 187 207 207 189 181 186 201 181 156 181 219 199 181 159 149 160 170 173 175 172 174 171 171 173 167 168 172 175 173 171 175
341 339 338 336 334 332 331 331 329 329 324 317 315 288 284 326 325 332 321 256 237 238 253 258 239 246 265 180 155 150 161 179 191 185 174 182 189 185 184 188 189 189 198 197 183 185 206 207 203 211 209 203 209 218 223 242 278 223 209 212 196 185 186 190 177 155 184 223 199 175 170 162 169 179 177 175 175 179 177 176 178 176 173 173 175 172 170 172
339 339 337 335 334 331 330 328 326 324 318 299 258 255 281 346 338 321 322 292 267 243 236 241 242 244 242 223 177 181 196 190 190 186 173 180 190 187 178 187 197 190 196 200 188 189 207 218 208 206 218 207 198 215 224 238 273 252 219 210 207 190 179 179 164 159 194 225 193 174 191 186 172 178 181 178 182 182 181 182 180 180 177 175 176 172 172 171
338 338 336 335 333 330 328 325 323 319 307 256 238 257 287 331 325 312 300 281 282 251 226 222 226 228 216 216 206 201 208 193 189 184 173 183 193 191 184 188 199 194 194 202 199 191 199 221 215 204 216 217 199 207 218 221 224 239 233 207 216 199 168 167 167 174 196 226 216 182 200 202 168 174 184 184 191 182 182 187 182 183 181 179 179 174 174 173
337 337 336 335 332 330 328 323 319 310 277 239 259 267 285 306 313 317 301 274 276 248 221 214 214 222 213 204 194 203 213 199 194 182 173 190 197 193 197 194 200 201 197 205 208 203 201 211 217 215 213 208 207 206 211 224 209 221 235 216 222 209 172 189 187 175 191 218 227 204 206 208 175 180 184 190 204 188 182 191 186 184 182 182 180 175 177 176
336 336 335 335 334 330 325 320 316 324 311 279 272 269 272 291 327 330 313 276 261 230 207 203 204 216 207 189 180 198 213 203 201 183 173 196 200 190 198 195 206 208 196 203 210 215 210 200 208 219 209 189 210 213 205 225 217 206 223 228 235 213 175 200 188 166 193 216 218 218 225 211 181 189 191 194 207 196 190 194 193 190 184 185 183 177 180 178
335 335 334 334 335 332 328 319 326 330 314 284 281 302 277 290 347 337 306 273 252 189 173 181 182 189 190 183 174 192 211 205 202 183 174 199 206 197 201 192 210 216 196 195 208 226 218 197 199 212 202 190 214 218 202 218 232 214 198 209 247 255 206 218 185 155 218 233 202 207 227 230 189 196 206 204 201 199 203 199 197 197 189 192 188 177 181 180
333 332 333 332 334 337 332 308 321 321 302 295 330 318 300 312 341 345 272 263 239 168 156 162 161 167 176 179 173 192 205 179 189 185 176 198 207 205 213 193 198 219 199 185 208 223 206 191 190 197 202 199 212 216 199 208 230 264 181 184 218 260 258 252 189 155 238 248 198 192 220 243 218 195 200 209 205 197 204 205 201 200 195 196 195 182 182 182
330 330 331 329 330 333 311 284 307 299 278 319 333 299 305 305 280 245 258 263 210 153 153 147 139 165 178 177 177 201 203 159 178 182 174 195 206 206 221 208 201 213 202 193 204 197 183 189 188 193 207 203 205 212 195 204 221 338 12 191 188 219 243 251 230 207 240 251 212 201 222 243 241 208 193 205 211 201 205 211 206 204 200 197 197 189 184 183
328 328 328 326 327 328 303 275 280 278 282 301 309 298 301 286 262 234 258 262 169 145 158 148 146 173 180 172 183 207 204 169 179 169 168 193 208 215 227 214 208 212 208 208 208 184 176 196 195 193 206 197 201 214 194 198 215 125 72 238 182 212 241 238 232 233 219 211 232 231 225 230 245 237 211 205 213 208 203 208 212 212 205 200 198 192 186 182
326 324 325 327 325 327 324 279 264 282 292 287 291 292 287 273 250 230 238 244 191 159 139 158 172 178 179 173 187 204 196 181 182 164 170 191 202 216 230 222 219 217 207 215 225 205 169 184 197 194 208 204 197 211 189 188 210 132 175 218 193 208 235 229 235 251 237 220 236 238 225 215 234 247 228 204 202 217 213 206 211 214 207 200 199 195 187 182
324 320 322 321 313 307 306 278 267 299 298 285 289 280 274 258 229 241 230 226 233 165 143 171 176 176 184 181 184 195 193 190 180 169 177 188 191 207 220 222 225 214 199 208 224 221 165 172 195 195 208 220 183 173 172 181 198 211 204 207 199 195 206 231 231 239 253 247 241 242 228 212 220 245 247 207 184 201 222 219 210 206 205 199 197 199 189 183
321 317 316 312 304 286 262 257 286 309 295 303 299 267 260 232 216 239 222 179 205 175 173 184 177 178 187 187 184 187 195 189 170 172 182 187 189 198 207 206 206 202 193 192 196 196 184 186 195 192 199 224 194 173 182 188 194 216 216 203 203 200 191 223 225 212 238 247 241 250 241 227 233 243 254 255 213 199 203 225 225 203 199 195 194 202 194 183
320 316 311 306 298 273 260 269 281 277 273 290 288 257 250 238 224 226 224 220 159 155 185 176 176 184 186 191 187 184 197 186 167 180 187 191 195 196 208 211 205 206 193 186 190 184 186 191 190 189 193 212 214 192 181 189 194 208 217 206 207 215 207 219 229 225 237 239 223 220 228 253 270 253 238 243 254 240 196 203 238 215 198 194 190 199 199 187
318 315 311 305 289 273 270 271 268 264 260 262 260 244 238 238 234 228 233 233 176 128 202 179 180 188 188 200 192 180 199 186 171 184 185 191 201 192 205 210 205 213 196 185 199 191 187 189 183 187 189 197 213 211 187 190 197 206 224 225 218 227 231 230 234 232 241 246 214 182 173 249 263 288 253 203 332 295 248 185 220 222 204 201 189 192 200 193
319 317 311 296 279 274 268 249 241 238 230 228 231 235 232 229 228 231 242 241 205 171 198 196 194 192 189 205 197 183 201 191 173 187 188 190 202 191 196 202 199 208 202 185 197 196 197 189 176 191 195 188 207 217 196 197 203 201 222 232 221 227 239 252 262 257 264 275 220 176 200 254 246 123 138 156 152 220 240 192 212 207 208 216 196 189 197 198
321 318 305 272 256 254 237 219 211 206 213 222 222 226 233 232 226 225 234 278 271 198 182 189 204 204 190 199 200 186 199 207 181 186 195 195 202 196 193 197 197 206 214 200 182 184 209 193 170 188 199 190 207 220 201 210 217 185 205 228 222 227 241 250 251 248 259 271 248 213 230 238 235 195 176 173 173 175 171 206 215 200 204 216 206 193 196 199
320 315 298 267 251 221 196 191 186 195 215 224 223 230 237 236 233 234 228 341 315 262 198 189 201 211 197 196 201 184 188 204 187 188 198 195 201 200 195 196 197 210 228 232 204 191 224 195 157 177 199 192 206 219 204 220 239 208 194 214 210 222 260 275 263 225 223 250 250 236 241 234 242 233 160 154 176 184 171 186 208 198 201 214 215 203 198 199
307 303 287 261 243 196 178 181 180 193 217 222 226 238 246 245 236 234 237 289 281 250 232 228 200 203 208 201 196 181 181 189 183 192 201 191 195 199 198 197 190 204 225 237 236 201 214 200 151 176 197 186 197 218 208 215 240 250 257 229 217 213 218 234 250 246 226 239 251 237 234 241 246 213 152 155 180 185 160 159 201 213 203 209 218 209 201 201
287 286 278 216 187 173 172 179 185 203 220 219 223 228 242 254 246 229 221 248 261 244 240 251 222 203 215 213 195 181 185 191 184 193 204 191 185 191 200 204 188 196 215 229 242 204 200 213 173 181 187 177 188 216 212 200 216 246 277 262 233 228 224 208 203 242 252 244 256 247 225 245 249 189 157 145 136 144 158 155 186 231 218 208 214 210 204 203
279 273 244 142 154 167 168 177 194 213 217 218 227 225 229 245 246 236 220 217 242 246 242 258 247 211 212 218 211 187 187 200 196 194 199 192 180 183 199 209 191 191 206 222 238 237 205 214 210 188 180 179 192 207 216 208 194 212 239 234 219 216 244 243 195 216 247 253 263 266 251 249 60 92 114 111 114 140 162 164 187 220 232 221 215 209 205 202
282 271 202 139 159 162 160 183 207 212 219 221 229 231 232 240 236 233 226 214 232 248 254 272 275 253 223 219 221 198 184 199 206 202 196 193 187 185 202 211 200 190 198 212 226 234 218 210 213 192 177 195 209 199 211 222 206 197 210 225 232 222 221 235 218 214 235 253 255 259 258 159 97 87 94 105 124 152 136 186 210 197 214 242 226 210 202 199
260 255 150 134 163 165 168 209 211 208 225 222 225 229 230 245 240 235 228 215 220 231 242 259 267 273 262 228 225 218 198 195 203 207 204 199 197 193 197 204 206 203 201 207 214 218 224 225 222 204 190 214 220 202 205 222 230 225 212 212 225 227 219 226 234 226 227 244 246 249 259 164 115 121 122 113 104 87 108 228 258 231 217 253 237 216 200 196
244 270 140 142 169 181 198 225 211 216 227 223 229 229 219 221 233 235 233 225 223 219 225 240 241 245 252 238 231 232 218 200 200 208 208 204 203 197 187 191 202 208 205 209 211 208 213 226 231 228 213 211 219 208 200 212 233 244 228 214 217 222 216 218 237 245 233 235 240 246 246 167 119 127 118 114 128 134 144 187 232 281 311 274 240 217 198 195
278 289 256 172 179 197 227 227 213 218 219 222 229 224 219 227 229 231 234 229 225 219 220 230 233 234 238 241 241 239 227 206 203 210 214 207 195 185 176 177 194 205 198 204 212 198 201 217 222 233 227 202 203 205 195 204 221 234 236 229 226 228 223 216 219 229 225 225 231 245 244 178 113 104 102 115 161 155 165 193 205 239 286 275 242 208 194 196
289 271 243 195 188 206 230 234 239 239 220 221 225 221 221 225 225 232 243 241 233 234 235 229 234 244 238 234 241 241 231 220 213 213 217 209 164 154 170 168 186 208 196 210 249 210 197 211 209 221 231 212 203 205 201 206 213 220 233 234 230 231 234 230 221 202 209 230 237 250 253 158 133 139 139 152 194 288 275 254 250 246 255 268 252 215 196 193
293 258 232 202 193 210 233 245 262 268 243 227 222 221 225 225 218 218 235 251 246 241 251 247 239 241 234 229 233 231 225 228 231 221 215 210 166 145 172 173 189 207 158 26 287 225 199 223 214 215 237 240 224 216 212 215 216 214 222 232 235 233 232 237 240 229 221 230 239 253 266 225 182 184 197 194 189 232 263 272 277 268 254 252 241 222 205 193
279 282 286 236 203 211 219 232 241 244 251 250 230 218 222 226 220 200 203 233 243 237 245 247 240 237 236 233 235 232 219 218 231 231 218 215 183 139 158 190 196 188 84 61 236 212 214 233 217 212 234 250 247 231 220 218 220 217 215 222 231 234 233 233 238 240 236 236 238 236 249 253 246 244 264 279 278 261 266 273 277 275 266 251 232 218 209 199
277 295 320 340 275 233 221 230 239 237 239 247 243 223 222 225 224 209 200 217 230 234 238 235 231 233 234 230 237 249 235 217 217 217 215 221 203 151 157 202 198 167 157 207 210 207 233 236 224 220 229 241 247 245 240 233 228 227 224 223 225 227 230 232 236 239 237 242 241 188 198 251 260 261 272 293 313 302 287 279 280 283 276 262 245 224 212 207
313 309 320 333 304 279 285 308 283 256 247 245 237 226 227 231 228 222 221 227 226 225 232 239 231 226 225 223 230 252 260 241 219 209 231 247 217 181 174 200 192 175 195 212 204 207 234 233 226 232 229 228 234 238 244 248 241 236 237 234 229 225 223 226 234 238 237 240 234 200 208 244 259 271 282 300 325 309 296 284 279 277 269 260 250 235 223 217
334 320 333 328 302 281 284 289 267 251 245 238 233 229 232 236 234 223 211 234 242 223 214 242 241 232 234 236 233 231 346 358 284 243 344 319 228 200 203 201 194 190 203 218 207 197 217 224 224 236 240 235 235 232 232 242 244 242 244 242 239 238 234 230 232 236 240 240 228 220 237 248 244 265 275 273 195 252 268 269 273 276 272 263 253 245 235 226
328 308 310 308 297 286 272 260 251 248 237 222 221 229 232 233 237 232 204 223 265 283 298 277 274 276 252 233 222 203 42 0 323 328 347 330 287 277 273 220 214 205 195 211 212 191 208 231 231 238 245 246 248 242 235 243 247 246 245 243 239 240 242 240 234 238 247 242 219 222 245 252 247 258 268 259 229 259 274 277 276 279 278 272 262 256 249 238
337 318 309 294 285 285 267 246 238 240 239 228 209 222 232 231 234 248 230 209 219 257 331 315 307 285 248 224 138 24 355 322 311 320 318 305 299 301 295 249 240 234 203 206 210 198 214 233 230 229 233 240 243 238 235 244 248 244 240 241 241 240 243 244 237 240 255 257 236 239 247 259 277 284 280 279 277 282 290 293 293 295 292 282 266 259 257 246